Simultaneous Nadir Overpasses (SNOs) Predictions

Prediction of SNOs between GOES-14 and NPP Satellite Orbit:

Table of predicted SNOs for the next 14.0 days since TLE Epoch: 7/15/2023
Index Date Time (GOES-14) GOES-14 Lat,Lon NPP Lat,Lon Distance(km) Time Diff (sec)
1 07/16/2023 08:56:58 -0.27,-108.66 0.66,-112.83 475.14 80
2 07/17/2023 08:40:53 -0.25,-108.65 -0.36,-108.30 40.89 80
3 07/19/2023 20:41:25 0.27,-108.55 0.16,-109.08 59.73 80
4 07/20/2023 20:25:20 0.25,-108.55 1.12,-104.53 456.88 80
5 07/22/2023 08:44:29 -0.29,-108.65 -0.03,-109.83 134.62 80
6 07/23/2023 08:28:25 -0.27,-108.64 -1.04,-105.30 381.66 80
7 07/24/2023 20:47:41 0.31,-108.54 -0.16,-110.61 235.48 80
8 07/25/2023 20:31:36 0.29,-108.54 0.87,-106.08 281.01 80
9 07/27/2023 08:50:45 -0.33,-108.64 0.28,-111.36 310.18 80
10 07/28/2023 08:34:40 -0.32,-108.63 -0.74,-106.83 205.58 80
